Showing default

QIANFAN-42, 62243

Orbit data source: Space-Track

QIANFAN-42, 62243 is a Chinese payload satellite in LEO that was launched on Thu, 05 Dec 2024 UTC via a CHANG ZHENG 6A launch vehicle from the Taiyaun Space Center, China (TSC). Payload-class satellites include a variety of spacecraft equipped with specific instruments for various scientific and technological missions. These include communications satellites like Starlink; space stations such as the ISS; scientific satellites like the Hubble; Earth observation satellites from companies like Planet Labs, Umbra, and HawkEye 360; GPS; miniature CubeSats for education and research; and military/defense satellites.

Loading next visibility...
Identifier
62243, 2024-232G
Orbit
LEO
Country
Flag of CNCN / PRC
Related business
Manufacturer
SECM
Mission
Partially operational Commercial Communications
Bus & Motor
QIANFAN, Unknown motor
Mass
267 kg wet, ~267 kg dry
Launch date (UTC)
2024-12-05 (1 year ago)
Launch vehicle
CHANG ZHENG 6A
Launch site
Taiyaun Space Center, China (TSC)
Object type
Payload
Rocket body
Debris
Shape & HBR
Box + 1 Pan, 5.0 m
Radar Cross Section
13.200 m², Large (>1 m²)

Expand to show TLE details & history
Last TLE update: 8 hours ago

TLE from 8 hours ago
0 QIANFAN-42
1 62243U 24232G   26037.26602305  .00000195  00000-0  77698-4 0  9998
2 62243  89.0010  31.0060 0012670 262.3011  97.6743 14.24515267109270
Epoch: 2026-02-06T06:23Z
TLE epoch observation values (Epoch: 2026-02-06T06:23:04.391Z)
Latitude
-0.00002°
Longitude
158.83134°
Altitude
814.41 km
Speed
7.445 km/s
True Right ascension
02h 04m 01s
True Declination
0° 00' 00"
Sunlit
Object was in daylight at epoch
Visualization orbit readout
Latitude
Unknown
Longitude
Unknown
Altitude
Unknown
Speed
Unknown
Apparent Right ascension
Unknown
Apparent Declination
Unknown
Sunlit
N/A
Visualization observer readout
Local Sidereal Time
16:48:17
Azimuth
Unknown
Elevation
Unknown
Doppler factor
Unknown
Orbital elements
Apogee altitude
816.171 km
Perigee altitude
797.964 km
Semi-major axis
7,185.205 km
Eccentricity
0.00127
Inclination
89.001°
RAAN
31.006°
Arg. of periapsis
262.3011°
True anomaly
97.81816°
Mean anomaly
97.6743°
Eccentric anomaly
97.74623°
Mean motion
3.56356 °/min
Orbital period
101.02 mins
BSTAR
0.000077698
Loading maneuver chart data...
Computing Atmospheric mass density...
Loading historical data...
Loading historical data...
Loading historical data...
Loading historical data...
Loading historical data...
Loading historical data...
Loading historical data...

Documentation

Showing up to 5 results
|